SCP
0 0 0 0 0 0 0 0 0 0 0 0 0 0 0 0 0 0 0 0 0 0
0 0 0 0 0 0 0 0 0 0 0 0 0 0 0 0 0 0 0 0 0 0
0 0 0 0 0 0 0 0 0 0 0 0 0 0 0 0 0 0 0 0 0 0
0 0 0 0 0 0 0 0 0 0 0 0 0 0 0 0 0 0 0 0 0 0
0 0 0 0 0 0 0 0 0 0 0 0 0 0 0 0 0 0 0 0 0 0
0 0 0 0 0 0 0 0 0 0 0 0 0 0 0 0 0 0 0 0 0 0
0 0 0 0 0 0 0 0 0 0 0 0 0 0 0 0 0 0 0 0 0 0
0 0 0 0 0 0 0 0 0 0 0 0 0 0 0 0 0 0 0 0 0 0
0 0 0 0 0 0 0 0 0 0 0 0 0 0 0 0 0 0 0 0 0 0
0 0 0 0 0 0 0 0 0 0 0 0 0 0 0 0 0 0 0 0 0 0
0 0 0 0 0 0 0 0 0 0 0 0 0 0 0 0 0 0 0 0 0 0
0 0 0 0 0 0 0 0 0 0 0 0 0 0 0 0 0 0 0 0 0 0
0 0 0 0 0 0 0 0 0 0 0 0 0 0 0 0 0 0 0 0 0 0
0 0 0 0 0 0 0 0 0 0 0 0 0 0 0 0 0 0 0 0 0 0
Wind_Speed_500mb
74 70 70 68 68 70 69 67 61 53 44 36 30 25 20 14 10 8 6 7 9 12
73 73 71 70 71 71 71 66 59 50 42 36 30 24 19 14 10 8 5 6 8 9
72 73 73 74 73 74 70 65 58 50 42 36 29 24 20 15 11 7 5 5 5 9
75 75 75 74 76 74 69 63 56 48 42 35 30 26 19 15 11 9 6 5 2 4
77 78 82 84 82 76 68 61 54 48 43 38 32 26 21 15 12 10 8 7 3 4
80 84 89 90 85 79 72 64 58 51 44 37 31 25 22 18 14 14 12 9 5 4
83 88 93 91 86 80 74 67 61 52 44 37 32 27 21 16 18 18 18 14 9 7
87 94 97 93 87 81 75 67 59 54 48 40 33 26 16 20 23 23 21 18 14 12
91 98 97 92 89 83 77 69 61 55 47 42 34 20 21 26 27 26 25 23 20 20
95 98 96 94 90 84 78 71 66 58 50 42 31 24 28 31 29 29 29 28 28 27
97 98 96 92 89 84 79 75 67 59 52 45 37 31 36 35 35 34 34 33 34 35
92 93 95 92 90 87 83 77 70 62 56 48 46 36 42 43 39 38 39 39 40 42
92 94 94 93 92 88 84 79 74 67 60 54 53 40 51 50 43 43 43 44 46 48
89 90 86 82 83 86 84 83 79 67 74 64 56 47 61 53 51 46 47 48 49 52
Wind_Direction_500mb
203 204 201 199 197 193 189 184 182 182 182 181 180 179 175 171 161 129 94 53 40 28
205 205 206 202 195 191 186 185 184 184 184 184 182 176 171 168 160 142 109 70 43 30
208 207 206 201 197 192 189 189 187 186 186 185 180 178 176 174 168 151 124 85 56 29
208 206 204 203 197 195 194 192 191 189 189 187 185 183 183 179 173 169 176 161 125 16
209 208 205 201 198 197 197 195 195 193 191 189 187 186 179 182 188 196 200 197 191 335
213 209 205 201 200 198 198 197 195 195 192 190 188 185 181 188 201 209 213 219 242 301
217 210 205 202 202 201 199 200 198 193 191 189 187 185 187 206 220 219 222 226 240 278
217 209 206 205 204 202 202 200 198 194 190 189 188 186 206 231 227 229 231 235 246 267
215 210 208 206 205 203 202 200 197 196 196 192 190 202 232 232 235 237 237 242 252 265
215 213 210 208 207 206 204 202 201 200 197 195 198 213 234 238 244 245 247 250 258 267
215 214 213 211 210 209 208 208 205 203 201 198 232 217 239 243 248 252 254 256 261 268
217 217 216 214 213 212 211 210 211 210 206 222 242 224 240 245 250 257 261 262 265 269
221 220 219 218 217 217 216 217 215 213 226 234 248 225 242 247 252 260 267 269 270 274
224 224 223 224 227 222 220 219 220 226 229 241 244 230 241 247 255 262 268 271 274 277
Wind_Speed_850mb
74 70 70 68 68 70 69 67 61 53 44 36 30 25 20 14 10 8 6 7 9 12
73 73 71 70 71 71 71 66 59 50 42 36 30 24 19 14 10 8 5 6 8 9
72 73 73 74 73 74 70 65 58 50 42 36 29 24 20 15 11 7 5 5 5 9
75 75 75 74 76 74 69 63 56 48 42 35 30 26 19 15 11 9 6 5 2 4
77 78 82 84 82 76 68 61 54 48 43 38 32 26 21 15 12 10 8 7 3 4
80 84 89 90 85 79 72 64 58 51 44 37 31 25 22 18 14 14 12 9 5 4
83 88 93 91 86 80 74 67 61 52 44 37 32 27 21 16 18 18 18 14 9 7
87 94 97 93 87 81 75 67 59 54 48 40 33 26 16 20 23 23 21 18 14 12
91 98 97 92 89 83 77 69 61 55 47 42 34 20 21 26 27 26 25 23 20 20
95 98 96 94 90 84 78 71 66 58 50 42 31 24 28 31 29 29 29 28 28 27
97 98 96 92 89 84 79 75 67 59 52 45 37 31 36 35 35 34 34 33 34 35
92 93 95 92 90 87 83 77 70 62 56 48 46 36 42 43 39 38 39 39 40 42
92 94 94 93 92 88 84 79 74 67 60 54 53 40 51 50 43 43 43 44 46 48
89 90 86 82 83 86 84 83 79 67 74 64 56 47 61 53 51 46 47 48 49 52
Wind_Direction_850mb
203 204 201 199 197 193 189 184 182 182 182 181 180 179 175 171 161 129 94 53 40 28
205 205 206 202 195 191 186 185 184 184 184 184 182 176 171 168 160 142 109 70 43 30
208 207 206 201 197 192 189 189 187 186 186 185 180 178 176 174 168 151 124 85 56 29
208 206 204 203 197 195 194 192 191 189 189 187 185 183 183 179 173 169 176 161 125 16
209 208 205 201 198 197 197 195 195 193 191 189 187 186 179 182 188 196 200 197 191 335
213 209 205 201 200 198 198 197 195 195 192 190 188 185 181 188 201 209 213 219 242 301
217 210 205 202 202 201 199 200 198 193 191 189 187 185 187 206 220 219 222 226 240 278
217 209 206 205 204 202 202 200 198 194 190 189 188 186 206 231 227 229 231 235 246 267
215 210 208 206 205 203 202 200 197 196 196 192 190 202 232 232 235 237 237 242 252 265
215 213 210 208 207 206 204 202 201 200 197 195 198 213 234 238 244 245 247 250 258 267
215 214 213 211 210 209 208 208 205 203 201 198 232 217 239 243 248 252 254 256 261 268
217 217 216 214 213 212 211 210 211 210 206 222 242 224 240 245 250 257 261 262 265 269
221 220 219 218 217 217 216 217 215 213 226 234 248 225 242 247 252 260 267 269 270 274
224 224 223 224 227 222 220 219 220 226 229 241 244 230 241 247 255 262 268 271 274 277